User: anonymous   Login
Location: Luz Observatory
(34.5000°N, 117.2833°W)
Time: 02:23:24
(UTC-08:00)
Language:

Cosmos 1452 Rocket - Orbit

View from above orbital plane
View from above orbital plane
View from above satellite
View from above satellite

Ground track
Ground track

The orbit data is extracted from the following two-line orbital elements,

1 13992U 83031B   15025.54084112  .00000210  00000-0  81407-4 0  6159
2 13992 074.0536 169.2950 0005299 355.3705 072.8111 14.35870670663406
Epoch (UTC): 25 January 2015 12:58:48
Eccentricity: 0.0005299
inclination: 74.0536°
perigee height: 768 km
apogee height: 776 km
right ascension of ascending node: 169.2950°
argument of perigee: 355.3705°
revolutions per day: 14.35870670
mean anomaly at epoch: 72.8111°
orbit number at epoch: 66340

The dashed part of the orbit path shows where the satellite is in the earth's shadow,  

DLR